TimeCDT,TemperatureF,Dew PointF,Humidity,Sea Level PressureIn,VisibilityMPH,Wind Direction,Wind SpeedMPH,Gust SpeedMPH,PrecipitationIn,Events,Conditions,WindDirDegrees,DateUTC
12:15 AM,63.5,62.2,96,29.71,3.0,SSW,6.9,-,N/A,,Overcast,200,2012-10-14 05:15:00
12:35 AM,63.7,62.6,96,29.71,3.0,SSW,5.8,-,N/A,,Overcast,200,2012-10-14 05:35:00
12:55 AM,64.4,63.0,95,29.70,4.0,SW,4.6,-,0.07,,Overcast,220,2012-10-14 05:55:00
1:15 AM,64.4,63.1,96,29.69,5.0,SSW,3.5,-,N/A,,Overcast,210,2012-10-14 06:15:00
1:35 AM,64.6,63.1,95,29.69,7.0,SSW,4.6,-,N/A,,Overcast,200,2012-10-14 06:35:00
1:55 AM,64.8,63.5,96,29.69,7.0,SSW,4.6,-,N/A,,Overcast,200,2012-10-14 06:55:00
2:15 AM,64.9,63.5,95,29.68,5.0,SSW,6.9,-,0.01,,Overcast,200,2012-10-14 07:15:00
2:35 AM,64.8,63.5,96,29.68,5.0,SSW,6.9,-,0.12,,Overcast,200,2012-10-14 07:35:00
2:55 AM,64.6,63.0,94,29.66,5.0,SSW,9.2,-,0.14,,Overcast,200,2012-10-14 07:55:00
3:15 AM,64.4,62.8,94,29.65,7.0,SSW,5.8,-,N/A,,Overcast,200,2012-10-14 08:15:00
3:35 AM,64.0,62.2,94,29.64,7.0,WSW,3.5,-,N/A,,Mostly Cloudy,240,2012-10-14 08:35:00
3:55 AM,63.9,62.2,94,29.64,7.0,SSW,4.6,-,N/A,,Mostly Cloudy,200,2012-10-14 08:55:00
4:15 AM,63.5,62.1,95,29.63,7.0,SW,4.6,-,N/A,,Mostly Cloudy,220,2012-10-14 09:15:00
4:35 AM,63.5,61.9,94,29.63,7.0,WSW,3.5,-,N/A,,Overcast,250,2012-10-14 09:35:00
4:55 AM,63.5,61.7,94,29.62,7.0,WSW,3.5,-,0.01,,Overcast,250,2012-10-14 09:55:00
5:15 AM,63.5,61.7,94,29.60,7.0,Calm,Calm,-,0.02,,Overcast,0,2012-10-14 10:15:00
5:35 AM,62.4,60.8,94,29.60,5.0,NNW,3.5,-,0.03,,Overcast,340,2012-10-14 10:35:00
5:55 AM,62.1,60.8,96,29.58,4.0,Calm,Calm,-,0.05,,Overcast,0,2012-10-14 10:55:00
6:15 AM,61.7,60.6,96,29.58,2.5,Calm,Calm,-,0.01,,Overcast,0,2012-10-14 11:15:00
6:35 AM,61.3,60.1,96,29.57,0.5,Calm,Calm,-,0.03,,Overcast,0,2012-10-14 11:35:00
6:55 AM,61.7,60.4,96,29.56,0.5,Calm,Calm,-,0.04,,Overcast,0,2012-10-14 11:55:00
7:15 AM,61.2,60.1,96,29.54,0.5,Calm,Calm,-,N/A,,Overcast,0,2012-10-14 12:15:00
7:35 AM,61.5,60.3,96,29.53,0.2,Calm,Calm,-,N/A,,Overcast,0,2012-10-14 12:35:00
7:55 AM,61.7,60.8,97,29.53,1.5,ESE,3.5,-,0.01,,Overcast,110,2012-10-14 12:55:00
8:15 AM,61.7,60.8,97,29.52,1.2,ESE,3.5,-,N/A,,Overcast,120,2012-10-14 13:15:00
8:35 AM,61.7,60.8,97,29.51,2.0,East,3.5,-,0.01,,Overcast,90,2012-10-14 13:35:00
8:55 AM,61.9,61.0,97,29.50,4.0,East,3.5,-,0.02,,Overcast,90,2012-10-14 13:55:00
9:15 AM,62.1,61.2,97,29.49,3.0,Calm,Calm,-,0.01,,Overcast,0,2012-10-14 14:15:00
9:35 AM,61.7,60.8,97,29.50,1.2,SSW,4.6,-,0.10,,Overcast,200,2012-10-14 14:35:00
9:55 AM,61.9,61.0,97,29.49,2.0,Calm,Calm,-,0.21,,Overcast,0,2012-10-14 14:55:00
10:15 AM,61.9,61.0,97,29.49,2.5,Calm,Calm,-,0.10,,Overcast,0,2012-10-14 15:15:00
10:35 AM,62.1,61.2,97,29.49,2.0,Calm,Calm,-,0.24,,Overcast,0,2012-10-14 15:35:00
10:55 AM,57.4,56.5,97,29.48,2.5,NNE,9.2,-,0.35,,Overcast,30,2012-10-14 15:55:00
11:15 AM,55.6,54.7,97,29.48,2.0,North,12.7,-,0.09,,Overcast,360,2012-10-14 16:15:00
11:35 AM,53.2,52.3,97,29.49,0.8,North,16.1,-,0.38,,Overcast,360,2012-10-14 16:35:00
11:55 AM,52.2,51.1,96,29.50,1.8,North,13.8,-,0.62,,Overcast,360,2012-10-14 16:55:00
12:15 PM,51.8,50.2,94,29.52,7.0,North,11.5,17.3,0.10,,Overcast,350,2012-10-14 17:15:00
12:35 PM,51.8,50.0,94,29.53,7.0,NW,12.7,-,0.14,,Overcast,320,2012-10-14 17:35:00
12:55 PM,51.4,49.6,94,29.51,7.0,North,18.4,-,0.20,,Overcast,360,2012-10-14 17:55:00
1:15 PM,51.4,49.1,92,29.51,10.0,North,13.8,20.7,N/A,,Overcast,10,2012-10-14 18:15:00
1:35 PM,50.5,48.0,91,29.51,10.0,North,19.6,25.3,N/A,,Overcast,360,2012-10-14 18:35:00
1:55 PM,50.4,47.8,91,29.51,10.0,North,17.3,24.2,N/A,,Overcast,360,2012-10-14 18:55:00
2:15 PM,50.0,47.5,91,29.53,10.0,North,13.8,20.7,N/A,,Overcast,350,2012-10-14 19:15:00
2:35 PM,50.2,47.7,91,29.53,10.0,North,12.7,-,0.01,,Overcast,350,2012-10-14 19:35:00
2:55 PM,50.2,47.7,91,29.54,10.0,North,18.4,21.9,0.01,,Overcast,350,2012-10-14 19:55:00
3:15 PM,50.0,47.7,92,29.56,10.0,NNW,16.1,-,N/A,,Overcast,340,2012-10-14 20:15:00
3:35 PM,49.8,47.3,91,29.56,10.0,NNW,12.7,19.6,0.02,,Overcast,330,2012-10-14 20:35:00
3:55 PM,50.0,47.3,90,29.57,10.0,NNW,15.0,23.0,0.03,,Overcast,340,2012-10-14 20:55:00
4:15 PM,49.5,47.1,92,29.58,10.0,NNW,18.4,-,N/A,,Overcast,330,2012-10-14 21:15:00
4:35 PM,49.1,46.4,90,29.60,10.0,NW,13.8,24.2,N/A,,Overcast,320,2012-10-14 21:35:00
4:55 PM,48.2,45.5,90,29.62,7.0,NW,13.8,21.9,0.01,,Overcast,320,2012-10-14 21:55:00
5:15 PM,47.8,45.0,90,29.63,10.0,NW,17.3,24.2,N/A,,Overcast,320,2012-10-14 22:15:00
5:35 PM,48.0,45.1,90,29.65,10.0,NW,16.1,20.7,N/A,,Overcast,310,2012-10-14 22:35:00
5:55 PM,48.2,44.8,88,29.67,10.0,NW,12.7,23.0,N/A,,Overcast,310,2012-10-14 22:55:00
6:15 PM,48.2,44.6,87,29.68,10.0,NW,17.3,23.0,N/A,,Overcast,310,2012-10-14 23:15:00
6:35 PM,47.8,44.4,88,29.69,10.0,WNW,16.1,23.0,N/A,,Overcast,300,2012-10-14 23:35:00
6:55 PM,47.5,44.2,89,29.71,10.0,WNW,16.1,20.7,N/A,,Overcast,300,2012-10-14 23:55:00
7:15 PM,47.3,43.9,88,29.72,10.0,NW,15.0,27.6,N/A,,Overcast,310,2012-10-15 00:15:00
7:35 PM,47.3,43.7,87,29.73,10.0,NW,18.4,23.0,N/A,,Overcast,310,2012-10-15 00:35:00
7:55 PM,47.3,43.9,88,29.74,10.0,WNW,13.8,19.6,N/A,,Overcast,300,2012-10-15 00:55:00
8:15 PM,47.3,43.9,88,29.74,10.0,NW,10.4,19.6,N/A,,Overcast,310,2012-10-15 01:15:00
8:35 PM,47.3,43.9,88,29.74,10.0,WNW,11.5,19.6,N/A,,Overcast,300,2012-10-15 01:35:00
8:55 PM,46.9,43.7,88,29.75,7.0,WNW,12.7,18.4,N/A,,Overcast,300,2012-10-15 01:55:00
9:15 PM,47.1,43.7,88,29.76,10.0,WNW,10.4,-,N/A,,Overcast,300,2012-10-15 02:15:00
9:35 PM,47.3,43.3,86,29.76,10.0,WNW,11.5,18.4,N/A,,Overcast,290,2012-10-15 02:35:00
9:55 PM,47.5,42.8,84,29.77,10.0,WNW,11.5,19.6,N/A,,Overcast,300,2012-10-15 02:55:00
10:15 PM,47.7,42.6,83,29.77,10.0,NW,12.7,17.3,N/A,,Overcast,310,2012-10-15 03:15:00
10:35 PM,47.7,42.4,82,29.78,10.0,WNW,13.8,19.6,N/A,,Overcast,300,2012-10-15 03:35:00
10:55 PM,47.7,42.3,82,29.78,10.0,WNW,9.2,-,N/A,,Overcast,300,2012-10-15 03:55:00
11:15 PM,47.5,42.3,82,29.79,10.0,WNW,9.2,-,N/A,,Overcast,300,2012-10-15 04:15:00
11:35 PM,47.5,42.3,82,29.79,10.0,WNW,9.2,-,N/A,,Overcast,300,2012-10-15 04:35:00